sat.trackr.live / text

‹ back to catalog

STARLINK-6370

NORAD 57373 · 2023-099AX

PAYLOAD ACTIVE UNKNOWN

§ Identity

Operator
Country
US
Launch date
2023-07-16
Launch site
AFETR
Launch vehicle
Mass (kg)
RCS (m²)

Purposes: comms

External: N2YO · Heavens-Above · Gunter

§ Orbital elements

Epoch: 2026-09-20T21:54:59.266080Z

Period
94.27 min
Inclination
43.0019°
Eccentricity
0.0000491
Mean motion
15.27569356 rev/d
Perigee alt
482.7 km
Apogee alt
483.4 km
Semi-major
6,861.2 km
B*
-2.7537e-5
RAAN
219.3676°
Arg perigee
252.7524°
Mean anomaly
107.3274°
Rev number
17,605

§ Raw data

STARLINK-63701 57373U 23099AX  26263.91318595 -.00001019  00000+0 -27537-4 0  99982 57373  43.0019 219.3676 0000491 252.7524 107.3274 15.27569356176051

JSON: /api/v1/satellites/57373 · /tle

For live sub-satellite position, see the globe view (requires WebGL).

§ Visibility from observer

Set your observer location to see the next 7 days of passes ≥ 10°. The values pass through the URL so the page stays shareable.

No JS? Fill the form by hand. The geolocation button needs JavaScript.